Weather History for Richmond, KY

Change the Weather History Date:

Tuesday, November 6, 2012

  Actual Average (KLOZ) Record (KLOZ)
Temperature  
Mean Temperature 42 °F 51 °F  
Max Temperature 51 °F 63 °F 79 °F (1977)
Min Temperature 32 °F 39 °F 20 °F (1967)
Degree Days  
Heating Degree Days 24 14  
Month to date heating degree days 81  
Since 1 July heating degree days 387  
Cooling Degree Days 0 0  
Month to date cooling degree days 0  
Moisture  
Dew Point 31 °F    
Average Humidity 66    
Maximum Humidity 87    
Minimum Humidity 44    
Precipitation  
Precipitation 0.00 in 0.12 in 1.93 in (1977)
Month to date precipitation 0.70  
Sea Level Pressure  
Sea Level Pressure 29.97 in    
Wind  
Wind Speed 2 mph (NE)    
Max Wind Speed 6 mph    
Max Gust Speed -    
Visibility 10 miles    
Events      
T = Trace of Precipitation, MM = Missing Value Source: NWS Daily Summary

Daily Weather History Graph

Daily Weather History Graph

Search for Another Location

Airport:

Trip Planner

Search our weather history database for the weather conditions in past years. The results will help you decide how hot, cold, wet, or windy it might be!

Date:

Astronomy

Nov. 06, 2012 Rise Set
Actual Time 7:08 AM EST 5:33 PM EST
Civil Twilight 6:40 AM EST 6:00 PM EST
Nautical Twilight 6:09 AM EST 6:31 PM EST
Astronomical Twilight 5:38 AM EST 7:02 PM EST
Moon No Moon Rise 1:00 PM EST (11/6)
Length of Visible Light 11h 20m
Length of Day
10h 25m
Waning Gibbous, 53% of the Moon is Illuminated
Nov 6
Waning Gibbous
Nov 6
Last Quarter
Nov 13
New
Nov 20
First Quarter
Nov 28
Full

Hourly Weather History & Observations

Time (EST) Temp. Windchill Dew Point Humidity Pressure Visibility Wind Dir Wind Speed Gust Speed Precip Events Conditions
12:15 AM 35.6 °F 32.8 °F 28.4 °F 75% 30.05 in 10.0 mi ENE 3.5 mph - N/A   Overcast
12:35 AM 35.6 °F 31.7 °F 28.4 °F 75% 30.03 in 10.0 mi ENE 4.6 mph - N/A   Overcast
12:55 AM 35.6 °F 32.8 °F 30.2 °F 81% 30.03 in 10.0 mi East 3.5 mph - N/A   Overcast
1:15 AM 35.6 °F 30.7 °F 28.4 °F 75% 30.03 in 10.0 mi East 5.8 mph - N/A   Overcast
1:35 AM 35.6 °F 32.8 °F 28.4 °F 75% 30.03 in 10.0 mi ESE 3.5 mph - N/A   Scattered Clouds
1:55 AM 35.6 °F 30.7 °F 28.4 °F 75% 30.02 in 10.0 mi East 5.8 mph - N/A   Clear
2:15 AM 35.6 °F 32.8 °F 28.4 °F 75% 30.03 in 10.0 mi East 3.5 mph - N/A   Scattered Clouds
2:35 AM 35.6 °F 32.8 °F 28.4 °F 75% 30.03 in 10.0 mi ENE 3.5 mph - N/A   Mostly Cloudy
2:55 AM 35.6 °F 32.8 °F 28.4 °F 75% 30.02 in 10.0 mi NE 3.5 mph - N/A   Overcast
3:35 AM 35.6 °F - 28.4 °F 75% 30.00 in 10.0 mi Calm Calm - N/A   Overcast
3:55 AM 35.6 °F - 30.2 °F 81% 30.00 in 10.0 mi Calm Calm - N/A   Overcast
4:35 AM 33.8 °F - 28.4 °F 81% 30.01 in 10.0 mi Calm Calm - N/A   Scattered Clouds
4:55 AM 33.8 °F - 28.4 °F 81% 30.01 in 10.0 mi Calm Calm - N/A   Scattered Clouds
5:15 AM 33.8 °F 30.8 °F 28.4 °F 81% 30.01 in 10.0 mi East 3.5 mph - N/A   Clear
5:35 AM 32.0 °F - 28.4 °F 87% 30.01 in 10.0 mi Calm Calm - N/A   Clear
5:55 AM 32.0 °F - 28.4 °F 87% 30.01 in 10.0 mi Calm Calm - N/A   Clear
6:15 AM 32.0 °F 28.7 °F 28.4 °F 87% 30.00 in 10.0 mi ENE 3.5 mph - N/A   Mostly Cloudy
6:35 AM 32.0 °F - 28.4 °F 87% 30.01 in 10.0 mi Calm Calm - N/A   Mostly Cloudy
6:55 AM 32.0 °F - 26.6 °F 80% 30.01 in 10.0 mi Calm Calm - N/A   Scattered Clouds
7:15 AM 32.0 °F 27.5 °F 26.6 °F 80% 30.00 in 10.0 mi East 4.6 mph - N/A   Clear
7:35 AM 32.0 °F 28.7 °F 26.6 °F 80% 30.00 in 10.0 mi East 3.5 mph - N/A   Clear
7:55 AM 32.0 °F - 28.4 °F 87% 30.01 in 10.0 mi Calm Calm - N/A   Clear
8:15 AM 32.0 °F - 28.4 °F 87% 30.01 in 10.0 mi Calm Calm - N/A   Clear
8:35 AM 33.8 °F 30.8 °F 28.4 °F 81% 30.02 in 10.0 mi NE 3.5 mph - N/A   Clear
8:55 AM 35.6 °F - 30.2 °F 81% 30.02 in 10.0 mi Calm Calm - N/A   Clear
9:15 AM 37.4 °F - 30.2 °F 75% 30.01 in 10.0 mi Calm Calm - N/A   Clear
9:35 AM 39.2 °F - 30.2 °F 70% 30.01 in 10.0 mi Calm Calm - N/A   Clear
9:55 AM 41.0 °F - 30.2 °F 65% 30.01 in 10.0 mi Calm Calm - N/A   Clear
10:15 AM 42.8 °F - 30.2 °F 61% 30.01 in 10.0 mi Calm Calm - N/A   Clear
10:35 AM 42.8 °F 41.1 °F 30.2 °F 61% 30.01 in 10.0 mi NNW 3.5 mph - N/A   Clear
10:55 AM 44.6 °F - 32.0 °F 61% 30.01 in 10.0 mi Calm Calm - N/A   Clear
11:15 AM 44.6 °F - 32.0 °F 61% 30.00 in 10.0 mi Calm Calm - N/A   Clear
11:35 AM 46.4 °F - 32.0 °F 57% 30.00 in 10.0 mi Calm Calm - N/A   Clear
11:55 AM 48.2 °F - 32.0 °F 54% 29.99 in 10.0 mi Calm Calm - N/A   Clear
12:35 PM 50.0 °F - 32.0 °F 50% 29.98 in 10.0 mi WNW 3.5 mph - N/A   Scattered Clouds
12:55 PM 50.0 °F - 32.0 °F 50% 29.97 in 10.0 mi WSW 3.5 mph - N/A   Mostly Cloudy
1:15 PM 50.0 °F - 33.8 °F 54% 29.96 in 10.0 mi Calm Calm - N/A   Overcast
1:35 PM 51.8 °F - 32.0 °F 47% 29.96 in 10.0 mi West 4.6 mph - N/A   Overcast
1:55 PM 51.8 °F - 32.0 °F 47% 29.95 in 10.0 mi West 3.5 mph - N/A   Overcast
2:15 PM 51.8 °F - 32.0 °F 47% 29.95 in 10.0 mi WNW 3.5 mph - N/A   Overcast
2:35 PM 51.8 °F - 32.0 °F 47% 29.94 in 10.0 mi Calm Calm - N/A   Overcast
2:55 PM 51.8 °F - 30.2 °F 44% 29.93 in 10.0 mi WNW 3.5 mph - N/A   Overcast
3:35 PM 51.8 °F - 32.0 °F 47% 29.93 in 10.0 mi West 3.5 mph - N/A   Overcast
3:55 PM 51.8 °F - 32.0 °F 47% 29.93 in 10.0 mi Calm Calm - N/A   Mostly Cloudy
4:15 PM 50.0 °F - 33.8 °F 54% 29.93 in 10.0 mi Calm Calm - N/A   Scattered Clouds
4:35 PM 50.0 °F - 33.8 °F 54% 29.93 in 10.0 mi Calm Calm - N/A   Overcast
4:55 PM 50.0 °F - 33.8 °F 54% 29.92 in 10.0 mi Calm Calm - N/A   Overcast
5:15 PM 50.0 °F - 33.8 °F 54% 29.91 in 10.0 mi Calm Calm - N/A   Scattered Clouds
5:35 PM 48.2 °F - 32.0 °F 54% 29.91 in 10.0 mi Calm Calm - N/A   Clear
5:55 PM 48.2 °F - 32.0 °F 54% 29.91 in 10.0 mi Calm Calm - N/A   Mostly Cloudy
6:15 PM 48.2 °F - 32.0 °F 54% 29.91 in 10.0 mi Calm Calm - N/A   Mostly Cloudy
6:35 PM 48.2 °F - 32.0 °F 54% 29.92 in 10.0 mi Calm Calm - N/A   Overcast
6:55 PM 50.0 °F - 32.0 °F 50% 29.93 in 10.0 mi Calm Calm - N/A   Overcast
7:15 PM 48.2 °F - 32.0 °F 54% 29.93 in 10.0 mi Calm Calm - N/A   Overcast
7:35 PM 48.2 °F - 32.0 °F 54% 29.93 in 10.0 mi South 3.5 mph - N/A   Overcast
7:55 PM 48.2 °F - 32.0 °F 54% 29.93 in 10.0 mi Calm Calm - N/A   Overcast
8:15 PM 48.2 °F - 33.8 °F 58% 29.93 in 10.0 mi Calm Calm - N/A   Overcast
8:35 PM 46.4 °F - 33.8 °F 62% 29.93 in 10.0 mi Calm Calm - N/A   Overcast
8:55 PM 46.4 °F - 32.0 °F 57% 29.93 in 10.0 mi Calm Calm - N/A   Overcast
9:15 PM 44.6 °F - 35.6 °F 71% 29.93 in 10.0 mi Calm Calm - N/A   Overcast
9:35 PM 44.6 °F - 35.6 °F 71% 29.93 in 10.0 mi Calm Calm - N/A   Overcast
9:55 PM 44.6 °F - 35.6 °F 71% 29.93 in 10.0 mi Calm Calm - N/A   Overcast
10:15 PM 44.6 °F - 33.8 °F 66% 29.92 in 10.0 mi Calm Calm - N/A   Overcast
10:35 PM 44.6 °F - 33.8 °F 66% 29.91 in 10.0 mi Calm Calm - N/A   Overcast
10:55 PM 44.6 °F - 33.8 °F 66% 29.91 in 10.0 mi Calm Calm - N/A   Overcast
11:15 PM 44.6 °F - 33.8 °F 66% 29.91 in 10.0 mi Calm Calm - N/A   Overcast
11:35 PM 44.6 °F 43.1 °F 33.8 °F 66% 29.90 in 10.0 mi West 3.5 mph - N/A   Overcast
11:55 PM 44.6 °F 43.1 °F 35.6 °F 71% 29.90 in 10.0 mi West 3.5 mph - N/A   Overcast